カタログに戻る

DMSP 5D-3 F16 DEB

運用中PO
NORAD 28081·DEBRIS·🇺🇸 United States

打ち上げ Oct 18, 2003 から Vandenberg Space Force Base

Loading…

次のパス (今後24時間)

TLE

最新Source: Space-Track

元期: Sep 14, 2026, 13:44 UTC

1 28081U 03048E   26257.57273333  .00010976  00000-0  14210-2 0  9992
2 28081  98.4828 299.8959 0006537 235.8731 124.1861 14.81029578190425

AllMySatでDMSP 5D-3 F16 DEBをリアルタイム追跡

Download on the App Store